Time,TemperatureF,DewpointF,PressureIn,WindDirection,WindDirectionDegrees,WindSpeedMPH,WindSpeedGustMPH,Humidity,HourlyPrecipIn,Conditions,Clouds,dailyrainin,SoftwareType,DateUTC
2013-07-13 00:02:00,68.0,68.0,30.00,North,0,0.0,4.0,99,0.10,,,1.46,,2013-07-13 04:02:00,
2013-07-13 00:43:00,68.0,68.0,30.00,North,0,0.0,7.0,99,0.00,,,1.46,,2013-07-13 04:43:00,
2013-07-13 00:52:00,68.0,68.0,30.01,North,0,0.0,7.0,99,0.00,,,1.46,,2013-07-13 04:52:00,
2013-07-13 01:01:00,68.0,68.0,30.01,North,0,0.0,5.0,99,0.00,,,1.46,,2013-07-13 05:01:00,
2013-07-13 01:11:00,68.0,68.0,30.01,North,0,0.0,5.0,99,0.01,,,1.47,,2013-07-13 05:11:00,
2013-07-13 01:42:00,68.0,68.0,30.01,SE,126,2.0,6.0,99,0.01,,,1.47,,2013-07-13 05:42:00,
2013-07-13 01:52:00,68.0,68.0,30.01,North,0,0.0,6.0,99,0.01,,,1.47,,2013-07-13 05:52:00,
2013-07-13 02:02:00,68.0,68.0,30.01,North,0,0.0,5.0,99,0.01,,,1.47,,2013-07-13 06:02:00,
2013-07-13 02:11:00,68.0,68.0,30.01,North,0,0.0,3.0,99,0.00,,,1.47,,2013-07-13 06:11:00,
2013-07-13 02:32:00,69.0,69.0,30.01,North,0,0.0,4.0,99,0.00,,,1.47,,2013-07-13 06:32:00,
2013-07-13 02:52:00,69.0,69.0,30.01,North,0,0.0,3.0,99,0.00,,,1.47,,2013-07-13 06:52:00,
2013-07-13 03:02:00,69.0,69.0,30.01,North,0,0.0,3.0,99,0.01,,,1.48,,2013-07-13 07:02:00,
2013-07-13 03:11:00,69.0,69.0,30.01,North,0,0.0,3.0,99,0.02,,,1.49,,2013-07-13 07:11:00,
2013-07-13 03:22:00,69.0,69.0,30.01,North,0,0.0,2.0,99,0.02,,,1.49,,2013-07-13 07:22:00,
2013-07-13 03:33:00,69.0,69.0,30.02,North,0,0.0,2.0,99,0.04,,,1.51,,2013-07-13 07:33:00,
2013-07-13 03:44:00,69.0,69.0,30.02,North,0,0.0,2.0,99,0.05,,,1.52,,2013-07-13 07:44:00,
2013-07-13 03:53:00,69.0,69.0,30.02,North,0,0.0,2.0,99,0.06,,,1.54,,2013-07-13 07:53:00,
2013-07-13 04:02:00,69.0,69.0,30.03,North,0,0.0,2.0,99,0.06,,,1.54,,2013-07-13 08:02:00,
2013-07-13 04:22:00,69.0,69.0,30.03,North,0,0.0,1.0,100,0.05,,,1.55,,2013-07-13 08:22:00,
2013-07-13 04:33:00,69.0,69.0,30.03,North,0,0.0,2.0,100,0.04,,,1.55,,2013-07-13 08:33:00,
2013-07-13 04:43:00,70.0,70.0,30.04,North,0,0.0,1.0,100,0.03,,,1.55,,2013-07-13 08:43:00,
2013-07-13 04:52:00,70.0,70.0,30.04,North,0,0.0,3.0,99,0.01,,,1.55,,2013-07-13 08:52:00,
2013-07-13 05:02:00,70.0,70.0,30.04,North,0,0.0,4.0,99,0.01,,,1.55,,2013-07-13 09:02:00,
2013-07-13 05:22:00,70.0,70.0,30.05,North,0,0.0,4.0,99,0.00,,,1.55,,2013-07-13 09:22:00,
2013-07-13 05:33:00,70.0,70.0,30.06,North,0,0.0,6.0,99,0.00,,,1.55,,2013-07-13 09:33:00,
2013-07-13 05:43:00,70.0,70.0,30.06,North,0,0.0,3.0,99,0.00,,,1.55,,2013-07-13 09:43:00,
2013-07-13 05:53:00,70.0,70.0,30.06,North,0,0.0,4.0,99,0.00,,,1.55,,2013-07-13 09:53:00,
2013-07-13 06:01:00,70.0,70.0,30.07,North,0,0.0,0.0,99,0.00,,,1.55,,2013-07-13 10:01:00,
2013-07-13 06:32:00,70.0,70.0,30.08,North,0,0.0,1.0,100,0.00,,,1.55,,2013-07-13 10:32:00,
2013-07-13 06:43:00,70.0,70.0,30.08,North,0,0.0,1.0,100,0.00,,,1.55,,2013-07-13 10:43:00,
2013-07-13 07:02:00,70.0,70.0,30.09,North,0,0.0,2.0,100,0.00,,,1.55,,2013-07-13 11:02:00,
2013-07-13 07:11:00,70.0,70.0,30.10,North,0,0.0,2.0,100,0.00,,,1.55,,2013-07-13 11:11:00,
2013-07-13 07:32:00,70.0,70.0,30.11,North,0,0.0,2.0,100,0.00,,,1.55,,2013-07-13 11:32:00,
2013-07-13 07:52:00,70.0,70.0,30.11,North,0,0.0,2.0,100,0.00,,,1.55,,2013-07-13 11:52:00,
2013-07-13 08:02:00,70.0,70.0,30.11,North,0,0.0,1.0,100,0.00,,,1.55,,2013-07-13 12:02:00,
2013-07-13 08:12:00,70.0,70.0,30.11,North,0,0.0,1.0,100,0.00,,,1.55,,2013-07-13 12:12:00,
2013-07-13 08:52:00,71.0,71.0,30.14,North,0,0.0,3.0,100,0.00,,,1.55,,2013-07-13 12:52:00,
2013-07-13 09:01:00,71.0,71.0,30.14,North,0,0.0,3.0,100,0.00,,,1.55,,2013-07-13 13:01:00,
2013-07-13 09:53:00,71.0,71.0,30.15,North,0,0.0,1.0,100,0.00,,,1.55,,2013-07-13 13:53:00,
2013-07-13 10:32:00,72.0,72.0,30.16,North,0,0.0,2.0,99,0.00,,,1.55,,2013-07-13 14:32:00,
2013-07-13 10:53:00,73.0,73.0,30.17,North,0,0.0,3.0,99,0.00,,,1.50,,2013-07-13 14:53:00,
2013-07-13 11:02:00,74.0,74.0,30.17,North,0,0.0,3.0,99,0.00,,,1.47,,2013-07-13 15:02:00,
2013-07-13 11:33:00,75.0,73.0,30.17,North,0,0.0,2.0,95,0.00,,,1.47,,2013-07-13 15:33:00,
2013-07-13 11:43:00,76.0,74.0,30.17,North,0,0.0,3.0,95,0.00,,,1.47,,2013-07-13 15:43:00,
2013-07-13 11:53:00,76.0,74.0,30.18,North,0,0.0,3.0,93,0.00,,,1.47,,2013-07-13 15:53:00,
2013-07-13 12:02:00,77.0,75.0,30.17,North,0,0.0,5.0,93,0.00,,,1.47,,2013-07-13 16:02:00,
2013-07-13 12:12:00,77.0,74.0,30.18,North,0,0.0,4.0,92,0.00,,,1.47,,2013-07-13 16:12:00,
2013-07-13 12:33:00,78.0,75.0,30.18,North,0,0.0,4.0,90,0.00,,,1.47,,2013-07-13 16:33:00,
2013-07-13 12:43:00,79.0,75.0,30.18,North,0,0.0,3.0,89,0.00,,,1.47,,2013-07-13 16:43:00,
2013-07-13 12:53:00,77.0,74.0,30.18,North,0,0.0,2.0,89,0.00,,,1.47,,2013-07-13 16:53:00,
2013-07-13 13:01:00,77.0,74.0,30.18,North,0,0.0,3.0,89,0.00,,,1.47,,2013-07-13 17:01:00,
2013-07-13 13:12:00,77.0,74.0,30.18,North,0,0.0,6.0,89,0.00,,,1.47,,2013-07-13 17:12:00,
2013-07-13 13:22:00,79.0,75.0,30.18,North,0,0.0,4.0,89,0.00,,,1.47,,2013-07-13 17:22:00,
2013-07-13 13:33:00,79.0,75.0,30.18,North,0,0.0,3.0,87,0.00,,,1.46,,2013-07-13 17:33:00,
2013-07-13 13:43:00,78.0,74.0,30.19,North,0,0.0,1.0,88,0.00,,,1.46,,2013-07-13 17:43:00,
2013-07-13 13:52:00,78.0,74.0,30.18,North,0,0.0,3.0,87,0.01,,,1.47,,2013-07-13 17:52:00,
2013-07-13 14:01:00,79.0,74.0,30.18,North,0,0.0,1.0,86,0.01,,,1.47,,2013-07-13 18:01:00,
2013-07-13 14:22:00,80.0,75.0,30.17,North,0,0.0,3.0,86,0.01,,,1.47,,2013-07-13 18:22:00,
2013-07-13 14:32:00,80.0,74.0,30.18,North,0,0.0,2.0,83,0.01,,,1.47,,2013-07-13 18:32:00,
2013-07-13 14:44:00,81.0,75.0,30.17,North,0,0.0,1.0,83,0.01,,,1.47,,2013-07-13 18:44:00,
2013-07-13 14:53:00,82.0,76.0,30.17,North,0,0.0,6.0,82,0.00,,,1.47,,2013-07-13 18:53:00,
2013-07-13 15:02:00,83.0,77.0,30.17,North,0,0.0,4.0,81,0.00,,,1.47,,2013-07-13 19:02:00,
2013-07-13 15:11:00,83.0,77.0,30.17,North,0,0.0,3.0,81,0.00,,,1.47,,2013-07-13 19:11:00,
2013-07-13 15:22:00,84.0,78.0,30.17,North,0,0.0,3.0,81,0.00,,,1.47,,2013-07-13 19:22:00,
2013-07-13 15:32:00,83.0,77.0,30.17,North,0,0.0,3.0,81,0.00,,,1.47,,2013-07-13 19:32:00,
2013-07-13 15:44:00,82.0,75.0,30.17,North,0,0.0,2.0,80,0.00,,,1.47,,2013-07-13 19:44:00,
2013-07-13 15:52:00,83.0,77.0,30.17,North,0,0.0,0.0,83,0.00,,,1.47,,2013-07-13 19:52:00,
2013-07-13 16:01:00,82.0,76.0,30.17,North,0,0.0,3.0,83,0.00,,,1.47,,2013-07-13 20:01:00,
2013-07-13 16:11:00,82.0,76.0,30.17,North,0,0.0,1.0,82,0.00,,,1.47,,2013-07-13 20:11:00,
2013-07-13 16:43:00,84.0,76.0,30.17,North,0,0.0,3.0,77,0.00,,,1.47,,2013-07-13 20:43:00,
2013-07-13 16:52:00,82.0,76.0,30.18,North,0,0.0,3.0,81,0.00,,,1.47,,2013-07-13 20:52:00,
2013-07-13 17:02:00,82.0,76.0,30.18,North,0,0.0,1.0,81,0.00,,,1.46,,2013-07-13 21:02:00,
2013-07-13 17:12:00,82.0,77.0,30.17,North,0,0.0,1.0,84,0.00,,,1.46,,2013-07-13 21:12:00,
2013-07-13 17:22:00,82.0,77.0,30.17,North,0,0.0,0.0,84,0.00,,,1.45,,2013-07-13 21:22:00,
2013-07-13 17:32:00,82.0,76.0,30.17,North,0,0.0,0.0,83,0.00,,,1.44,,2013-07-13 21:32:00,
2013-07-13 17:43:00,82.0,77.0,30.17,North,0,0.0,0.0,84,0.00,,,1.42,,2013-07-13 21:43:00,
2013-07-13 17:53:00,81.0,76.0,30.17,North,0,0.0,0.0,86,0.00,,,1.42,,2013-07-13 21:53:00,
2013-07-13 18:01:00,81.0,77.0,30.18,North,0,0.0,0.0,87,0.00,,,1.40,,2013-07-13 22:01:00,
2013-07-13 18:12:00,82.0,76.0,30.18,North,0,0.0,1.0,83,0.00,,,1.38,,2013-07-13 22:12:00,
2013-07-13 18:22:00,82.0,76.0,30.18,North,0,0.0,1.0,83,0.00,,,1.38,,2013-07-13 22:22:00,
2013-07-13 18:32:00,81.0,76.0,30.19,North,0,0.0,1.0,85,0.00,,,1.37,,2013-07-13 22:32:00,
2013-07-13 18:43:00,82.0,77.0,30.19,North,0,0.0,0.0,85,0.01,,,1.37,,2013-07-13 22:43:00,
2013-07-13 19:02:00,81.0,77.0,30.20,North,0,0.0,0.0,87,0.01,,,1.35,,2013-07-13 23:02:00,
2013-07-13 19:11:00,81.0,77.0,30.20,North,0,0.0,3.0,88,0.02,,,1.35,,2013-07-13 23:11:00,
2013-07-13 19:32:00,80.0,76.0,30.21,North,0,0.0,0.0,89,0.02,,,1.33,,2013-07-13 23:32:00,
2013-07-13 19:42:00,80.0,77.0,30.21,North,0,0.0,0.0,90,0.01,,,1.33,,2013-07-13 23:42:00,
2013-07-13 19:53:00,80.0,77.0,30.21,North,0,0.0,0.0,90,0.01,,,1.32,,2013-07-13 23:53:00,
2013-07-13 20:01:00,79.0,76.0,30.21,North,0,0.0,0.0,91,0.01,,,1.29,,2013-07-14 00:01:00,
2013-07-13 20:22:00,79.0,76.0,30.22,North,0,0.0,0.0,91,0.00,,,1.24,,2013-07-14 00:22:00,
2013-07-13 20:42:00,79.0,76.0,30.22,North,0,0.0,0.0,92,0.00,,,1.11,,2013-07-14 00:42:00,
2013-07-13 20:53:00,78.0,75.0,30.22,North,0,0.0,0.0,92,0.00,,,1.05,,2013-07-14 00:53:00,
2013-07-13 21:02:00,78.0,76.0,30.22,North,0,0.0,0.0,93,0.00,,,1.01,,2013-07-14 01:02:00,
2013-07-13 21:11:00,78.0,76.0,30.22,North,0,0.0,0.0,93,0.00,,,0.97,,2013-07-14 01:11:00,
2013-07-13 21:22:00,77.0,75.0,30.22,North,0,0.0,0.0,93,0.00,,,0.91,,2013-07-14 01:22:00,
2013-07-13 21:32:00,77.0,75.0,30.23,North,0,0.0,0.0,93,0.00,,,0.83,,2013-07-14 01:32:00,
2013-07-13 21:43:00,77.0,75.0,30.23,North,0,0.0,0.0,93,0.00,,,0.73,,2013-07-14 01:43:00,
2013-07-13 21:52:00,76.0,74.0,30.23,North,0,0.0,0.0,93,0.00,,,0.64,,2013-07-14 01:52:00,
2013-07-13 22:02:00,76.0,74.0,30.24,North,0,0.0,0.0,93,0.00,,,0.56,,2013-07-14 02:02:00,
2013-07-13 22:11:00,76.0,74.0,30.24,North,0,0.0,0.0,93,0.00,,,0.46,,2013-07-14 02:11:00,
2013-07-13 22:22:00,76.0,74.0,30.24,North,0,0.0,0.0,94,0.00,,,0.40,,2013-07-14 02:22:00,
2013-07-13 22:32:00,76.0,74.0,30.25,North,0,0.0,0.0,94,0.00,,,0.36,,2013-07-14 02:32:00,
2013-07-13 22:43:00,76.0,74.0,30.26,North,0,0.0,0.0,94,0.00,,,0.35,,2013-07-14 02:43:00,
2013-07-13 22:53:00,75.0,73.0,30.26,North,0,0.0,0.0,95,0.00,,,0.26,,2013-07-14 02:53:00,
2013-07-13 23:02:00,75.0,73.0,30.26,North,0,0.0,0.0,95,0.00,,,0.20,,2013-07-14 03:02:00,
2013-07-13 23:11:00,75.0,73.0,30.26,North,0,0.0,0.0,95,0.00,,,0.17,,2013-07-14 03:11:00,
2013-07-13 23:22:00,75.0,73.0,30.26,North,0,0.0,0.0,95,0.00,,,0.13,,2013-07-14 03:22:00,
2013-07-13 23:32:00,75.0,73.0,30.27,North,0,0.0,0.0,95,0.00,,,0.13,,2013-07-14 03:32:00,
2013-07-13 23:43:00,75.0,73.0,30.27,North,0,0.0,0.0,95,0.00,,,0.12,,2013-07-14 03:43:00,
2013-07-13 23:53:00,75.0,74.0,30.27,North,0,0.0,0.0,96,0.00,,,0.12,,2013-07-14 03:53:00,